Theta_e
301 301 301 302 302 302 303 302 302 302 303 304 303 302 302 304 305 302 302 301 302 302 303 304 305 303 304 312 318 319 318 316 317 319 317 314 314 312 311 312 312 314 318 320 326
301 301 301 302 303 303 303 303 303 302 303 304 303 302 302 305 307 303 301 301 301 302 303 305 305 304 308 311 315 318 315 315 315 315 316 313 310 311 310 311 311 311 312 313 313
301 301 302 303 304 304 304 303 303 303 303 304 303 302 302 303 307 302 301 301 301 302 303 305 304 305 308 310 312 316 315 313 313 312 309 310 309 309 310 311 311 311 310 308 308
301 302 302 304 304 303 304 303 303 303 304 304 303 302 302 304 311 301 301 301 301 301 302 305 306 308 309 311 308 313 312 311 311 307 307 309 307 307 307 309 306 306 305 305 305
303 303 304 305 305 305 305 304 304 304 304 304 304 303 302 304 303 301 301 301 301 301 302 304 307 308 310 309 308 310 309 307 307 306 305 305 305 306 306 306 305 304 304 305 304
306 306 307 308 309 308 307 306 305 304 304 304 303 302 302 306 302 301 301 301 301 301 301 302 305 306 307 307 308 306 306 306 305 305 305 304 306 302 306 304 304 304 304 303 303
311 311 312 312 313 312 310 307 305 305 305 304 303 302 302 303 301 301 301 301 301 302 303 303 305 306 304 307 305 306 306 306 305 303 305 302 306 304 305 303 302 302 303 303 303
313 313 313 314 315 315 314 312 309 307 306 305 304 302 303 301 301 300 300 301 301 303 303 304 304 304 306 304 303 305 305 309 303 303 302 302 310 305 302 301 303 303 303 303 303
316 316 316 316 316 316 316 313 310 307 307 305 304 303 303 302 301 300 300 300 302 303 303 304 304 302 301 305 307 305 311 305 305 302 303 303 307 306 301 301 302 303 303 303 302
317 317 317 317 317 317 315 314 309 307 306 307 305 305 303 302 302 301 301 300 302 303 303 303 304 306 303 306 325 310 306 304 304 302 303 303 304 305 305 303 303 303 302 302 302
317 317 317 317 316 316 316 313 310 306 307 304 302 302 302 302 301 300 301 300 302 302 305 303 306 308 306 302 301 302 303 304 304 301 301 304 304 305 305 304 303 302 301 301 302
317 316 317 317 317 316 314 310 304 304 302 300 300 300 300 300 300 300 300 300 302 303 302 304 307 301 302 302 303 303 304 308 303 301 301 304 303 305 303 302 301 301 302 302 302
315 315 316 316 316 317 314 310 305 300 300 300 301 301 301 300 300 300 300 301 302 303 303 304 303 300 301 302 303 303 304 303 304 303 301 301 309 309 303 301 301 301 301 301 302
316 316 317 317 316 314 312 310 304 301 312 307 301 300 300 299 301 300 299 301 302 302 302 303 300 301 302 302 302 304 300 301 302 304 312 300 320 311 305 304 303 303 302 302 302
315 316 317 316 316 315 313 310 304 304 326 303 300 300 299 299 300 300 299 299 302 302 301 304 302 302 303 303 301 302 301 302 302 302 300 303 307 312 303 307 306 305 303 303 302
313 314 315 314 314 314 315 313 308 320 324 304 299 300 299 299 300 299 299 300 299 301 301 300 299 301 302 300 300 301 301 299 299 302 309 300 305 313 311 307 304 302 302 302 301
313 314 313 312 312 312 311 306 313 320 307 307 302 300 299 300 301 300 300 301 303 310 307 302 302 300 300 301 301 301 302 321 322 316 319 300 303 310 308 303 303 303 302 301 300
306 312 311 311 311 310 306 311 316 314 307 299 300 300 301 299 300 300 300 302 299 300 303 308 312 302 301 301 301 301 301 311 314 314 311 297 307 310 303 301 301 301 301 300 301
305 308 309 311 310 310 310 312 317 312 304 303 301 304 301 299 299 299 300 301 299 300 305 304 303 300 300 300 299 301 302 298 300 291 301 308 304 304 304 301 301 300 300 301 300
306 306 307 308 310 309 308 310 309 306 302 306 314 306 307 301 302 301 301 300 299 299 298 300 306 299 300 299 299 300 299 304 304 310 312 312 306 310 308 304 302 301 301 300 299
304 304 305 306 308 306 309 309 307 305 305 307 310 310 305 303 302 304 308 300 299 299 298 299 301 300 299 301 303 300 301 300 301 302 309 310 315 307 308 307 304 302 300 299 299
302 304 303 305 304 303 306 304 303 303 301 300 301 303 304 303 305 302 307 302 298 300 301 299 301 302 302 297 296 299 301 301 307 307 300 299 307 303 303 303 300 301 300 301 300
301 301 301 304 305 304 301 302 302 301 301 301 302 302 301 301 306 303 299 297 297 300 304 300 302 308 307 297 296 299 299 300 297 298 303 306 309 300 299 299 299 299 299 299 298
300 302 299 301 301 303 305 303 303 301 301 301 303 302 301 301 302 307 303 298 298 298 299 302 303 306 311 309 298 299 298 299 300 302 302 302 304 305 306 307 306 303 299 298 297
300 300 300 300 301 302 302 302 300 304 300 300 303 304 304 306 302 302 300 300 298 299 300 302 302 300 302 301 298 298 299 299 299 301 302 305 305 306 306 306 304 302 299 297 296
299 299 298 298 299 301 301 302 301 301 301 301 303 303 303 306 306 304 302 302 305 300 300 298 303 294 297 297 298 299 300 300 299 300 300 301 301 302 303 303 301 298 297 295 294
297 298 299 300 299 300 300 300 301 301 301 302 302 302 301 301 302 303 303 303 303 302 301 299 299 298 305 291 291 299 296 298 299 300 300 300 301 303 303 302 300 296 296 295 294
Wind_Speed
8 9 11 12 12 11 11 11 11 11 10 10 10 9 7 6 4 6 4 7 6 6 5 2 4 7 9 6 5 5 4 5 3 5 1 1 2 2 4 8 5 6 6 5 7
7 8 9 11 12 13 13 12 11 10 10 10 10 9 7 5 3 4 7 8 8 6 4 2 5 8 4 4 3 5 4 3 1 2 2 3 4 5 5 8 9 10 11 14 14
7 8 10 11 12 13 13 12 11 10 10 10 10 9 7 5 1 5 9 8 7 6 3 3 6 4 3 3 2 3 4 0 2 4 4 5 6 6 8 11 17 13 9 9 11
6 7 8 10 12 12 12 11 11 10 10 10 9 8 7 6 2 6 8 7 6 5 3 2 4 3 2 4 1 4 3 3 1 2 3 5 5 9 18 17 6 9 14 14 15
8 8 9 11 12 13 13 13 12 12 11 10 9 8 6 3 1 5 7 6 5 3 1 3 4 3 2 3 2 5 3 3 5 7 9 11 16 15 22 24 18 18 18 19 15
9 9 10 11 13 13 14 14 13 12 12 11 10 8 4 0 2 4 6 6 5 4 3 2 3 4 4 1 2 2 6 9 6 5 7 8 10 4 3 4 5 10 12 13 11
9 10 11 12 13 14 15 14 14 13 12 11 9 8 4 1 3 4 6 6 6 5 5 4 4 3 5 2 1 2 6 6 2 3 3 10 10 10 12 10 12 14 14 14 14
9 10 11 12 13 15 15 15 15 13 11 9 8 6 2 2 2 4 6 6 5 5 4 4 5 4 2 2 1 2 2 4 2 5 3 5 10 2 3 5 10 13 15 17 21
8 9 10 12 13 15 16 16 13 9 8 7 6 3 1 2 2 4 6 5 3 3 2 2 1 2 1 3 3 1 4 3 3 3 3 2 14 4 3 10 24 26 27 23 20
9 11 11 11 13 15 16 15 10 7 5 5 3 1 1 2 4 6 6 5 1 1 1 1 1 2 1 4 4 3 4 3 6 2 3 10 25 28 23 20 26 28 24 18 13
11 12 12 12 12 14 13 10 7 3 11 3 5 4 5 6 7 5 4 3 1 1 2 2 3 4 3 3 3 1 2 8 5 1 6 7 19 27 28 21 23 20 12 9 6
14 14 16 14 11 13 12 6 6 6 5 5 3 4 5 5 2 2 3 1 1 2 1 3 4 2 6 3 1 2 5 6 7 1 5 9 24 25 10 3 4 3 5 6 6
11 13 15 14 14 12 8 6 7 10 4 2 1 1 1 1 1 1 1 2 1 4 2 4 3 5 1 2 3 5 6 3 5 9 5 13 11 6 3 4 3 4 5 7 6
11 13 13 14 11 5 6 8 9 10 2 2 1 2 2 1 1 1 1 2 2 2 3 1 3 3 3 3 4 4 1 2 6 8 4 6 5 10 2 7 7 9 10 10 10
7 7 8 7 5 5 6 7 9 6 3 3 1 1 2 2 0 1 1 1 3 3 3 3 4 4 4 1 4 2 2 3 3 1 4 2 3 7 2 2 2 9 15 13 12
7 5 4 3 2 2 3 4 4 2 7 3 1 1 1 1 2 1 1 1 2 2 0 1 1 2 0 2 2 3 2 2 1 2 3 1 2 6 4 3 2 3 9 14 12
12 9 9 3 2 2 1 2 2 4 3 2 1 2 2 1 1 1 1 2 3 1 3 2 3 2 2 3 2 2 2 3 3 2 2 1 4 12 6 6 4 4 6 10 11
13 8 6 5 7 6 4 2 3 1 2 1 2 1 1 3 1 3 1 3 4 1 1 3 4 6 5 3 2 4 2 2 5 4 5 1 7 4 2 2 8 11 12 18 22
9 9 10 10 8 6 2 3 3 4 4 3 1 2 0 1 2 2 3 2 1 8 5 3 2 1 0 0 2 5 4 3 3 2 3 4 7 14 5 10 14 16 15 12 10
8 7 13 13 9 8 2 6 4 4 4 1 4 4 3 3 2 1 2 2 1 3 1 1 3 1 2 1 3 3 6 1 1 4 6 5 6 11 5 7 5 3 5 8 11
9 6 8 17 13 6 4 6 5 8 9 5 2 4 5 3 5 4 3 2 1 2 1 3 2 3 2 8 7 4 4 3 2 3 4 6 6 7 8 4 5 2 7 12 13
7 4 6 16 7 5 4 5 4 4 6 4 1 5 5 6 4 3 4 3 5 7 5 1 0 3 5 2 3 2 2 7 5 5 3 3 12 4 6 4 3 8 12 23 26
6 8 7 21 7 8 2 4 5 5 5 6 5 7 3 5 3 6 5 4 4 4 5 6 1 4 3 2 1 4 4 4 1 1 8 6 10 4 3 4 7 11 18 23 29
6 3 6 18 11 7 6 6 6 7 5 7 3 4 2 4 5 2 4 2 4 4 3 6 5 7 9 6 3 6 5 8 9 5 10 18 26 31 27 22 18 15 17 23 24
11 5 8 4 10 10 8 4 6 7 8 9 4 10 9 7 4 5 5 2 3 6 5 4 7 6 13 13 12 17 18 18 17 21 14 32 27 38 31 24 29 34 28 27 29
7 5 8 2 12 16 19 16 18 5 9 6 10 11 14 12 9 5 4 5 6 8 6 7 2 2 5 8 15 19 20 19 23 24 25 32 40 30 41 35 20 15 25 24 30
25 16 10 8 9 9 17 18 11 18 16 22 13 12 12 15 17 16 11 7 7 8 9 7 5 4 9 2 5 10 14 23 12 13 19 22 36 29 26 17 17 18 28 26 22
Wind_Direction
31 29 23 23 21 20 20 22 21 15 9 12 12 16 18 14 12 28 18 29 29 18 13 72 106 136 141 151 155 162 233 249 237 196 132 173 289 216 247 260 248 224 234 246 237
18 19 21 20 15 12 11 12 11 9 2 3 3 4 6 16 21 39 14 19 16 16 20 83 134 141 128 148 163 218 242 237 175 204 238 224 259 278 269 241 245 242 238 252 253
11 9 10 11 10 6 5 360 359 358 356 357 355 353 351 354 82 17 10 9 8 11 40 102 137 133 126 166 170 183 258 61 231 247 258 267 267 250 259 259 248 253 238 234 248
18 14 10 7 3 1 357 356 351 350 349 350 350 348 348 356 312 359 1 4 11 17 31 123 155 132 151 189 215 246 247 240 264 215 262 260 276 264 245 250 260 246 257 253 261
20 17 13 8 4 0 356 351 348 345 343 341 343 346 356 19 58 351 352 359 9 19 48 154 161 147 192 169 210 245 295 262 267 273 271 270 263 266 266 267 258 254 257 271 259
29 23 17 13 7 2 356 350 345 340 337 333 338 344 358 67 342 349 355 3 5 25 47 130 166 162 109 145 231 341 291 282 292 293 289 290 276 300 239 315 242 238 244 253 240
18 17 15 13 9 2 355 349 341 336 331 327 334 345 358 108 342 343 355 7 18 35 45 78 127 133 139 152 248 279 295 278 272 330 300 314 266 229 261 263 255 254 244 235 245
6 3 3 5 5 0 353 346 337 331 331 328 333 346 63 329 340 341 355 0 9 27 48 67 96 118 90 138 183 247 244 292 82 340 16 351 279 303 229 231 246 244 245 258 275
342 346 349 352 355 355 348 343 336 337 334 332 330 358 89 353 325 330 343 354 342 352 35 66 83 80 127 222 228 223 267 256 277 47 318 273 286 264 206 261 276 274 272 273 279
319 323 328 338 345 349 350 345 339 341 11 350 36 68 18 356 327 317 320 327 312 300 337 18 62 230 192 224 248 206 267 253 265 51 266 264 267 284 276 271 276 279 277 271 264
299 306 311 323 337 347 355 354 351 348 341 302 305 301 288 298 296 296 295 300 241 134 242 30 249 246 342 349 8 9 273 276 274 334 297 254 275 280 294 284 271 275 259 234 211
300 298 306 308 322 340 353 35 34 329 309 314 297 281 280 290 281 320 307 220 189 213 188 211 238 80 112 97 0 295 299 279 284 291 311 309 292 282 301 254 261 298 195 180 159
282 284 293 299 307 317 332 8 356 348 280 335 59 55 321 309 210 281 329 146 142 178 203 250 80 142 176 173 250 243 248 290 287 320 261 308 275 274 201 270 238 214 195 182 191
287 280 286 281 292 287 312 334 340 347 319 159 121 74 52 70 296 337 108 155 134 214 185 249 118 189 201 238 201 282 52 301 310 337 296 10 287 290 288 278 229 210 209 213 209
313 304 296 295 265 287 294 316 331 341 300 49 102 135 113 117 213 6 353 203 187 155 205 103 175 195 227 251 181 344 1 311 305 250 320 106 223 275 310 240 224 208 214 221 222
282 313 302 315 264 265 286 280 328 253 242 116 90 340 174 113 128 289 293 351 117 141 161 186 176 223 272 116 166 117 274 258 135 171 242 98 267 272 229 163 172 196 214 225 221
269 269 283 245 177 99 130 112 60 220 6 358 61 31 352 8 96 25 128 211 240 220 215 178 194 154 198 188 158 199 280 293 271 236 293 105 266 253 252 211 224 205 200 198 216
255 246 269 200 142 101 103 58 230 59 253 297 282 342 0 10 63 328 237 247 208 202 232 251 244 191 169 245 163 171 196 246 277 287 314 168 241 245 249 281 236 239 253 252 250
225 225 234 226 199 183 156 218 237 189 162 194 165 23 13 85 282 318 247 253 221 197 218 193 225 124 313 120 277 143 200 90 106 100 273 238 264 276 272 246 242 253 241 250 254
200 224 233 224 217 201 123 233 234 181 148 165 188 179 227 197 204 231 206 158 201 199 254 169 267 166 134 164 71 265 137 159 177 277 274 234 261 251 250 223 192 200 214 238 253
188 220 219 208 197 172 218 226 222 206 170 195 253 203 234 216 198 209 208 166 211 143 220 159 233 114 172 208 188 157 203 195 303 230 267 300 254 215 235 198 197 237 266 261 273
190 218 201 184 174 197 205 204 215 182 180 194 233 225 203 190 206 239 260 266 189 168 153 82 65 250 229 78 354 295 248 192 230 206 245 298 272 189 247 255 266 280 285 301 296
212 215 190 187 209 213 185 267 247 173 190 175 225 221 188 194 231 216 204 189 202 228 173 163 103 301 213 146 70 242 219 214 114 275 224 259 260 116 151 227 251 261 283 298 308
212 194 190 209 223 214 203 227 233 203 211 186 211 134 130 208 220 259 248 199 186 200 168 132 178 202 254 297 150 239 218 226 225 252 279 241 286 271 287 288 298 297 303 311 314
211 226 193 203 220 217 214 190 197 205 217 203 221 215 185 217 210 216 230 201 208 203 178 150 224 226 251 265 252 258 254 246 234 240 248 272 278 278 279 298 304 306 308 314 314
219 188 186 239 215 202 217 230 224 214 179 216 227 196 208 225 218 245 208 210 222 183 167 185 219 122 268 257 249 261 258 247 244 248 252 260 264 269 286 293 294 302 309 310 317
227 240 212 207 204 208 220 228 228 217 236 234 215 221 216 227 241 257 259 224 213 173 190 175 170 161 271 19 307 269 230 225 216 227 236 251 257 281 288 290 302 302 303 304 310